Time,TemperatureF,DewpointF,PressureIn,WindDirection,WindDirectionDegrees,WindSpeedMPH,WindSpeedGustMPH,Humidity,HourlyPrecipIn,Conditions,Clouds,dailyrainin,SoftwareType,DateUTC
2013-04-29 00:00:00,69.0,66.0,30.09,South,170,15.0,16.0,89,-99.99,,,-99.99,,2013-04-29 04:00:00,
2013-04-29 00:22:00,69.0,66.0,30.09,South,170,15.0,16.0,89,-99.99,,,-99.99,,2013-04-29 04:22:00,
2013-04-29 00:32:00,69.0,66.0,30.09,South,170,15.0,16.0,89,-99.99,,,-99.99,,2013-04-29 04:32:00,
2013-04-29 00:43:00,69.0,66.0,30.09,South,170,15.0,16.0,89,-99.99,,,-99.99,,2013-04-29 04:43:00,
2013-04-29 00:52:00,69.0,66.0,30.09,South,170,15.0,16.0,89,-99.99,,,-99.99,,2013-04-29 04:52:00,
2013-04-29 01:00:00,69.0,66.0,30.07,SSE,160,10.0,11.0,91,-99.99,,,-99.99,,2013-04-29 05:00:00,
2013-04-29 01:22:00,69.0,66.0,30.07,SSE,160,10.0,11.0,91,-99.99,,,-99.99,,2013-04-29 05:22:00,
2013-04-29 01:32:00,69.0,66.0,30.07,SSE,160,10.0,11.0,91,-99.99,,,-99.99,,2013-04-29 05:32:00,
2013-04-29 01:42:00,69.0,66.0,30.07,SSE,160,10.0,11.0,91,-99.99,,,-99.99,,2013-04-29 05:42:00,
2013-04-29 01:52:00,69.0,66.0,30.07,SSE,160,10.0,11.0,91,-99.99,,,-99.99,,2013-04-29 05:52:00,
2013-04-29 02:00:00,69.0,66.0,30.06,South,170,14.0,15.0,89,-99.99,,,-99.99,,2013-04-29 06:00:00,
2013-04-29 02:21:00,69.0,66.0,30.06,South,170,14.0,15.0,89,-99.99,,,-99.99,,2013-04-29 06:21:00,
2013-04-29 02:32:00,69.0,66.0,30.06,South,170,14.0,15.0,89,-99.99,,,-99.99,,2013-04-29 06:32:00,
2013-04-29 02:41:00,69.0,66.0,30.06,South,170,14.0,15.0,89,-99.99,,,-99.99,,2013-04-29 06:41:00,
2013-04-29 02:51:00,69.0,66.0,30.06,South,170,14.0,15.0,89,-99.99,,,-99.99,,2013-04-29 06:51:00,
2013-04-29 03:00:00,69.0,66.0,30.04,South,170,15.0,17.0,88,-99.99,,,-99.99,,2013-04-29 07:00:00,
2013-04-29 03:21:00,69.0,66.0,30.04,South,170,15.0,17.0,88,-99.99,,,-99.99,,2013-04-29 07:21:00,
2013-04-29 03:31:00,69.0,66.0,30.04,South,170,15.0,17.0,88,-99.99,,,-99.99,,2013-04-29 07:31:00,
2013-04-29 03:41:00,69.0,66.0,30.04,South,170,15.0,17.0,88,-99.99,,,-99.99,,2013-04-29 07:41:00,
2013-04-29 03:52:00,69.0,66.0,30.04,South,170,15.0,17.0,88,-99.99,,,-99.99,,2013-04-29 07:52:00,
2013-04-29 04:00:00,69.0,67.0,30.03,South,170,11.0,13.0,93,-99.99,,,-99.99,,2013-04-29 08:00:00,
2013-04-29 04:21:00,69.0,67.0,30.03,South,170,11.0,13.0,93,-99.99,,,-99.99,,2013-04-29 08:21:00,
2013-04-29 04:31:00,69.0,67.0,30.03,South,170,11.0,13.0,93,-99.99,,,-99.99,,2013-04-29 08:31:00,
2013-04-29 04:41:00,69.0,67.0,30.03,South,170,11.0,13.0,93,-99.99,,,-99.99,,2013-04-29 08:41:00,
2013-04-29 04:51:00,69.0,67.0,30.03,South,170,11.0,13.0,93,-99.99,,,-99.99,,2013-04-29 08:51:00,
2013-04-29 05:00:00,69.0,66.0,30.01,South,180,9.0,11.0,92,-99.99,,,-99.99,,2013-04-29 09:00:00,
2013-04-29 05:21:00,69.0,66.0,30.01,South,180,9.0,11.0,92,-99.99,,,-99.99,,2013-04-29 09:21:00,
2013-04-29 05:32:00,69.0,66.0,30.01,South,180,9.0,11.0,92,-99.99,,,-99.99,,2013-04-29 09:32:00,
2013-04-29 05:42:00,69.0,66.0,30.01,South,180,9.0,11.0,92,-99.99,,,-99.99,,2013-04-29 09:42:00,
2013-04-29 05:52:00,69.0,66.0,30.01,South,180,9.0,11.0,92,-99.99,,,-99.99,,2013-04-29 09:52:00,
2013-04-29 06:00:00,68.0,67.0,30.01,SW,220,14.0,16.0,96,-99.99,,,-99.99,,2013-04-29 10:00:00,
2013-04-29 06:22:00,68.0,67.0,30.01,SW,220,14.0,16.0,96,-99.99,,,-99.99,,2013-04-29 10:22:00,
2013-04-29 06:32:00,68.0,67.0,30.01,SW,220,14.0,16.0,96,-99.99,,,-99.99,,2013-04-29 10:32:00,
2013-04-29 06:41:00,68.0,67.0,30.01,SW,220,14.0,16.0,96,-99.99,,,-99.99,,2013-04-29 10:41:00,
2013-04-29 06:52:00,68.0,67.0,30.01,SW,220,14.0,16.0,96,-99.99,,,-99.99,,2013-04-29 10:52:00,
2013-04-29 07:00:00,68.0,67.0,30.04,SW,230,7.0,8.0,98,-99.99,,,-99.99,,2013-04-29 11:00:00,
2013-04-29 07:21:00,68.0,67.0,30.04,SW,230,7.0,8.0,98,-99.99,,,-99.99,,2013-04-29 11:21:00,
2013-04-29 07:31:00,68.0,67.0,30.04,SW,230,7.0,8.0,98,-99.99,,,-99.99,,2013-04-29 11:31:00,
2013-04-29 07:41:00,68.0,67.0,30.04,SW,230,7.0,8.0,98,-99.99,,,-99.99,,2013-04-29 11:41:00,
2013-04-29 07:52:00,68.0,67.0,30.04,SW,230,7.0,8.0,98,-99.99,,,-99.99,,2013-04-29 11:52:00,
2013-04-29 08:00:00,68.0,68.0,30.05,SW,220,8.0,9.0,98,-99.99,,,-99.99,,2013-04-29 12:00:00,
2013-04-29 08:21:00,68.0,68.0,30.05,SW,220,8.0,9.0,98,-99.99,,,-99.99,,2013-04-29 12:21:00,
2013-04-29 08:31:00,68.0,68.0,30.05,SW,220,8.0,9.0,98,-99.99,,,-99.99,,2013-04-29 12:31:00,
2013-04-29 08:41:00,68.0,68.0,30.05,SW,220,8.0,9.0,98,-99.99,,,-99.99,,2013-04-29 12:41:00,
2013-04-29 08:51:00,68.0,68.0,30.05,SW,220,8.0,9.0,98,-99.99,,,-99.99,,2013-04-29 12:51:00,
2013-04-29 09:00:00,68.0,68.0,30.06,SW,220,7.0,7.0,99,-99.99,,,-99.99,,2013-04-29 13:00:00,
2013-04-29 09:21:00,68.0,68.0,30.06,SW,220,7.0,7.0,99,-99.99,,,-99.99,,2013-04-29 13:21:00,
2013-04-29 09:31:00,68.0,68.0,30.06,SW,220,7.0,7.0,99,-99.99,,,-99.99,,2013-04-29 13:31:00,
2013-04-29 09:41:00,68.0,68.0,30.06,SW,220,7.0,7.0,99,-99.99,,,-99.99,,2013-04-29 13:41:00,
2013-04-29 09:51:00,68.0,68.0,30.06,SW,220,7.0,7.0,99,-99.99,,,-99.99,,2013-04-29 13:51:00,
2013-04-29 10:00:00,68.0,68.0,30.05,SSW,210,7.0,7.0,97,-99.99,,,-99.99,,2013-04-29 14:00:00,
2013-04-29 10:21:00,68.0,68.0,30.05,SSW,210,7.0,7.0,97,-99.99,,,-99.99,,2013-04-29 14:21:00,
2013-04-29 10:31:00,68.0,68.0,30.05,SSW,210,7.0,7.0,97,-99.99,,,-99.99,,2013-04-29 14:31:00,
2013-04-29 10:41:00,68.0,68.0,30.05,SSW,210,7.0,7.0,97,-99.99,,,-99.99,,2013-04-29 14:41:00,
2013-04-29 10:51:00,68.0,68.0,30.05,SSW,210,7.0,7.0,97,-99.99,,,-99.99,,2013-04-29 14:51:00,
2013-04-29 11:00:00,70.0,68.0,30.06,South,190,7.0,8.0,94,-99.99,,,-99.99,,2013-04-29 15:00:00,
2013-04-29 11:21:00,70.0,68.0,30.06,South,190,7.0,8.0,94,-99.99,,,-99.99,,2013-04-29 15:21:00,
2013-04-29 11:33:00,70.0,68.0,30.06,South,190,7.0,8.0,94,-99.99,,,-99.99,,2013-04-29 15:33:00,
2013-04-29 11:42:00,70.0,68.0,30.06,South,190,7.0,8.0,94,-99.99,,,-99.99,,2013-04-29 15:42:00,
2013-04-29 11:52:00,70.0,68.0,30.06,South,190,7.0,8.0,94,-99.99,,,-99.99,,2013-04-29 15:52:00,
2013-04-29 12:00:00,69.0,67.0,30.05,SSW,210,8.0,9.0,93,-99.99,,,-99.99,,2013-04-29 16:00:00,
2013-04-29 12:23:00,69.0,67.0,30.05,SSW,210,8.0,9.0,93,-99.99,,,-99.99,,2013-04-29 16:23:00,
2013-04-29 12:32:00,69.0,67.0,30.05,SSW,210,8.0,9.0,93,-99.99,,,-99.99,,2013-04-29 16:32:00,
2013-04-29 12:42:00,69.0,67.0,30.05,SSW,210,8.0,9.0,93,-99.99,,,-99.99,,2013-04-29 16:42:00,
2013-04-29 12:52:00,69.0,67.0,30.05,SSW,210,8.0,9.0,93,-99.99,,,-99.99,,2013-04-29 16:52:00,
2013-04-29 13:00:00,71.0,68.0,30.04,SSW,200,7.0,9.0,91,-99.99,,,-99.99,,2013-04-29 17:00:00,
2013-04-29 13:22:00,71.0,68.0,30.04,SSW,200,7.0,9.0,91,-99.99,,,-99.99,,2013-04-29 17:22:00,
2013-04-29 13:31:00,71.0,68.0,30.04,SSW,200,7.0,9.0,91,-99.99,,,-99.99,,2013-04-29 17:31:00,
2013-04-29 13:42:00,71.0,68.0,30.04,SSW,200,7.0,9.0,91,-99.99,,,-99.99,,2013-04-29 17:42:00,
2013-04-29 13:52:00,71.0,68.0,30.04,SSW,200,7.0,9.0,91,-99.99,,,-99.99,,2013-04-29 17:52:00,
2013-04-29 14:00:00,71.0,68.0,30.02,South,190,10.0,13.0,90,-99.99,,,-99.99,,2013-04-29 18:00:00,
2013-04-29 14:22:00,71.0,68.0,30.02,South,190,10.0,13.0,90,-99.99,,,-99.99,,2013-04-29 18:22:00,
2013-04-29 14:31:00,71.0,68.0,30.02,South,190,10.0,13.0,90,-99.99,,,-99.99,,2013-04-29 18:31:00,
2013-04-29 14:41:00,71.0,68.0,30.02,South,190,10.0,13.0,90,-99.99,,,-99.99,,2013-04-29 18:41:00,
2013-04-29 14:51:00,71.0,68.0,30.02,South,190,10.0,13.0,90,-99.99,,,-99.99,,2013-04-29 18:51:00,
2013-04-29 15:00:00,70.0,68.0,30.00,South,180,10.0,11.0,92,-99.99,,,-99.99,,2013-04-29 19:00:00,
2013-04-29 15:21:00,70.0,68.0,30.00,South,180,10.0,11.0,92,-99.99,,,-99.99,,2013-04-29 19:21:00,
2013-04-29 15:31:00,70.0,68.0,30.00,South,180,10.0,11.0,92,-99.99,,,-99.99,,2013-04-29 19:31:00,
2013-04-29 15:41:00,70.0,68.0,30.00,South,180,10.0,11.0,92,-99.99,,,-99.99,,2013-04-29 19:41:00,
2013-04-29 15:51:00,70.0,68.0,30.00,South,180,10.0,11.0,92,-99.99,,,-99.99,,2013-04-29 19:51:00,
2013-04-29 16:00:00,70.0,67.0,29.98,South,190,13.0,15.0,89,-99.99,,,-99.99,,2013-04-29 20:00:00,
2013-04-29 16:21:00,70.0,67.0,29.98,South,190,13.0,15.0,89,-99.99,,,-99.99,,2013-04-29 20:21:00,
2013-04-29 16:32:00,70.0,67.0,29.98,South,190,13.0,15.0,89,-99.99,,,-99.99,,2013-04-29 20:32:00,
2013-04-29 16:42:00,70.0,67.0,29.98,South,190,13.0,15.0,89,-99.99,,,-99.99,,2013-04-29 20:42:00,
2013-04-29 16:51:00,70.0,67.0,29.98,South,190,13.0,15.0,89,-99.99,,,-99.99,,2013-04-29 20:51:00,
2013-04-29 17:00:00,70.0,68.0,30.00,SSW,200,5.0,6.0,93,-99.99,,,-99.99,,2013-04-29 21:00:00,
2013-04-29 17:21:00,70.0,68.0,30.00,SSW,200,5.0,6.0,93,-99.99,,,-99.99,,2013-04-29 21:21:00,
2013-04-29 17:32:00,70.0,68.0,30.00,SSW,200,5.0,6.0,93,-99.99,,,-99.99,,2013-04-29 21:32:00,
2013-04-29 17:42:00,70.0,68.0,30.00,SSW,200,5.0,6.0,93,-99.99,,,-99.99,,2013-04-29 21:42:00,
2013-04-29 17:53:00,70.0,68.0,30.00,SSW,200,5.0,6.0,93,-99.99,,,-99.99,,2013-04-29 21:53:00,
2013-04-29 18:00:00,66.0,63.0,30.00,NNE,30,10.0,11.0,92,-99.99,,,-99.99,,2013-04-29 22:00:00,
2013-04-29 18:22:00,66.0,63.0,30.00,NNE,30,10.0,11.0,92,-99.99,,,-99.99,,2013-04-29 22:22:00,
2013-04-29 18:32:00,66.0,63.0,30.00,NNE,30,10.0,11.0,92,-99.99,,,-99.99,,2013-04-29 22:32:00,
2013-04-29 18:42:00,66.0,63.0,30.00,NNE,30,10.0,11.0,92,-99.99,,,-99.99,,2013-04-29 22:42:00,
2013-04-29 18:52:00,66.0,63.0,30.00,NNE,30,10.0,11.0,92,-99.99,,,-99.99,,2013-04-29 22:52:00,
2013-04-29 19:00:00,65.0,63.0,29.99,ENE,60,10.0,11.0,93,-99.99,,,-99.99,,2013-04-29 23:00:00,
2013-04-29 19:22:00,65.0,63.0,29.99,ENE,60,10.0,11.0,93,-99.99,,,-99.99,,2013-04-29 23:22:00,
2013-04-29 19:31:00,65.0,63.0,29.99,ENE,60,10.0,11.0,93,-99.99,,,-99.99,,2013-04-29 23:31:00,
2013-04-29 19:41:00,65.0,63.0,29.99,ENE,60,10.0,11.0,93,-99.99,,,-99.99,,2013-04-29 23:41:00,
2013-04-29 19:52:00,65.0,63.0,29.99,ENE,60,10.0,11.0,93,-99.99,,,-99.99,,2013-04-29 23:52:00,
2013-04-29 20:00:00,67.0,66.0,30.01,South,180,8.0,9.0,99,-99.99,,,-99.99,,2013-04-30 00:00:00,
2013-04-29 20:21:00,67.0,66.0,30.01,South,180,8.0,9.0,99,-99.99,,,-99.99,,2013-04-30 00:21:00,
2013-04-29 20:31:00,67.0,66.0,30.01,South,180,8.0,9.0,99,-99.99,,,-99.99,,2013-04-30 00:31:00,
2013-04-29 20:41:00,67.0,66.0,30.01,South,180,8.0,9.0,99,-99.99,,,-99.99,,2013-04-30 00:41:00,
2013-04-29 20:51:00,67.0,66.0,30.01,South,180,8.0,9.0,99,-99.99,,,-99.99,,2013-04-30 00:51:00,
2013-04-29 21:00:00,67.0,66.0,30.00,South,180,7.0,8.0,98,-99.99,,,-99.99,,2013-04-30 01:00:00,
2013-04-29 21:21:00,67.0,66.0,30.00,South,180,7.0,8.0,98,-99.99,,,-99.99,,2013-04-30 01:21:00,
2013-04-29 21:31:00,67.0,66.0,30.00,South,180,7.0,8.0,98,-99.99,,,-99.99,,2013-04-30 01:31:00,
2013-04-29 21:41:00,67.0,66.0,30.00,South,180,7.0,8.0,98,-99.99,,,-99.99,,2013-04-30 01:41:00,
2013-04-29 21:51:00,67.0,66.0,30.00,South,180,7.0,8.0,98,-99.99,,,-99.99,,2013-04-30 01:51:00,
2013-04-29 22:00:00,67.0,65.0,30.01,SSE,150,10.0,11.0,93,-99.99,,,-99.99,,2013-04-30 02:00:00,
2013-04-29 22:21:00,67.0,65.0,30.01,SSE,150,10.0,11.0,93,-99.99,,,-99.99,,2013-04-30 02:21:00,
2013-04-29 22:31:00,67.0,65.0,30.01,SSE,150,10.0,11.0,93,-99.99,,,-99.99,,2013-04-30 02:31:00,
2013-04-29 22:41:00,67.0,65.0,30.01,SSE,150,10.0,11.0,93,-99.99,,,-99.99,,2013-04-30 02:41:00,
2013-04-29 22:51:00,67.0,65.0,30.01,SSE,150,10.0,11.0,93,-99.99,,,-99.99,,2013-04-30 02:51:00,
2013-04-29 23:00:00,67.0,65.0,30.01,SE,140,7.0,8.0,95,-99.99,,,-99.99,,2013-04-30 03:00:00,
2013-04-29 23:21:00,67.0,65.0,30.01,SE,140,7.0,8.0,95,-99.99,,,-99.99,,2013-04-30 03:21:00,
2013-04-29 23:32:00,67.0,65.0,30.01,SE,140,7.0,8.0,95,-99.99,,,-99.99,,2013-04-30 03:32:00,
2013-04-29 23:42:00,67.0,65.0,30.01,SE,140,7.0,8.0,95,-99.99,,,-99.99,,2013-04-30 03:42:00,
2013-04-29 23:52:00,67.0,65.0,30.01,SE,140,7.0,8.0,95,-99.99,,,-99.99,,2013-04-30 03:52:00,